GW3819 Weather Reports


time (UTC)temp
C
wind
direction
speed
KPH
gust
KPH
rain 1hr
cm
rain 24hr
cm
rain mn
cm
humidity
%
barometer
mb
20260507021510 2 157 0.0 4.8 0.00 0.03 0.00 82 1010.1
20260507020009 2 128 3.2 9.7 0.00 0.03 0.00 82 1010.1
20260507014512 2 202 1.6 11.3 0.00 0.03 0.00 82 1009.9
20260507013011 2 186 3.2 9.7 0.00 0.03 0.00 82 1009.7
20260507011506 2 168 6.4 11.3 0.00 0.03 0.00 82 1009.7
20260507010007 2 170 3.2 6.4 0.00 0.03 0.00 82 1009.6
20260507004503 2 165 4.8 6.4 0.00 0.03 0.00 82 1009.7
20260507003001 2 223 0.0 3.2 0.00 0.03 0.00 82 1009.4
20260507001500 2 158 3.2 6.4 0.00 0.03 0.00 81 1009.3
20260507000059 2 160 4.8 12.9 0.00 0.03 0.00 82 1009.5
20260506234600 2 167 1.6 4.8 0.00 0.03 0.00 82 1009.7
20260506233059 3 167 1.6 9.7 0.00 0.03 0.00 81 1009.7
20260506231607 3 171 1.6 8.0 0.00 0.03 0.00 78 1009.6
20260506230106 3 148 0.0 3.2 0.00 0.03 0.00 78 1009.6
20260506224552 3 131 6.4 14.5 0.00 0.03 0.00 76 1009.5
20260506223050 3 130 8.0 24.1 0.00 0.03 0.00 78 1009.4
20260506221608 3 170 4.8 16.1 0.00 0.03 0.00 77 1009.3
20260506220055 3 121 4.8 14.5 0.00 0.03 0.00 77 1009.2
20260506214547 3 121 8.0 19.3 0.00 0.03 0.03 77 1009.0
20260506213058 3 125 9.7 19.3 0.00 0.03 0.03 77 1009.1
20260506211541 3 164 14.5 25.7 0.03 0.03 0.03 79 1009.0
20260506210046 3 94 14.5 25.7 0.03 0.03 0.03 81 1009.0
20260506204538 3 238 3.2 16.1 0.03 0.03 0.03 79 1009.1
20260506203035 3 133 6.4 14.5 0.03 0.03 0.03 77 1009.1
20260506201539 4 219 11.3 24.1 0.00 0.00 0.00 72 1009.3
20260506200030 5 204 16.1 30.6 0.00 0.00 0.00 70 1008.9
20260506194528 4 209 4.8 11.3 0.00 0.00 0.00 72 1008.7
20260506193026 5 192 4.8 25.7 0.00 0.00 0.00 68 1008.3
20260506191524 5 244 11.3 27.4 0.00 0.00 0.00 68 1008.1
20260506190028 5 175 16.1 25.7 0.00 0.00 0.00 67 1008.0
20260506184524 5 186 9.7 16.1 0.00 0.00 0.00 67 1007.6
20260506183020 5 223 14.5 25.7 0.00 0.00 0.00 61 1007.5
20260506181520 6 219 22.5 45.1 0.00 0.00 0.00 67 1007.0
20260506180024 6 207 16.1 35.4 0.00 0.00 0.00 68 1006.7
20260506174524 6 187 16.1 29.0 0.00 0.00 0.00 66 1006.3
20260506173018 7 196 16.1 27.4 0.00 0.00 0.00 63 1005.9
20260506171530 7 194 17.7 29.0 0.00 0.00 0.00 63 1005.6
20260506170016 8 171 14.5 25.7 0.00 0.00 0.00 55 1005.4
20260506164520 8 179 9.7 22.5 0.00 0.00 0.00 53 1005.2
20260506163017 8 18 11.3 22.5 0.00 0.00 0.00 52 1004.9
20260506161516 9 202 3.2 16.1 0.00 0.00 0.00 52 1004.7
20260506160016 10 325 6.4 19.3 0.00 0.00 0.00 53 1004.5
20260506154514 10 267 14.5 32.2 0.00 0.00 0.00 49 1004.8
20260506153013 10 235 14.5 43.5 0.00 0.00 0.00 48 1004.8
20260506151516 11 282 8.0 35.4 0.00 0.00 0.00 48 1004.8
20260506150012 10 303 9.7 24.1 0.00 0.00 0.00 48 1004.8
20260506144509 10 208 8.0 24.1 0.00 0.00 0.00 51 1004.9
20260506143009 10 41 9.7 24.1 0.00 0.00 0.00 55 1005.1
20260506141507 11 211 8.0 27.4 0.00 0.00 0.00 55 1005.2
20260506140013 9 340 8.0 19.3 0.00 0.00 0.00 59 1005.1
20260506134505 8 169 16.1 25.7 0.00 0.00 0.00 61 1005.5
20260506133004 8 222 11.3 29.0 0.00 0.00 0.00 65 1005.2
20260506131506 8 18 4.8 24.1 0.00 0.00 0.00 65 1005.2
20260506130003 8 166 8.0 30.6 0.00 0.00 0.00 64 1005.2
20260506124505 8 192 16.1 33.8 0.00 0.00 0.00 62 1005.1
20260506123001 8 221 11.3 22.5 0.00 0.00 0.00 67 1005.0
20260506121601 8 212 6.4 17.7 0.00 0.00 0.00 63 1004.7
20260506114559 10 322 1.6 6.4 0.00 0.00 0.00 65 1004.5
20260506113058 11 188 1.6 8.0 0.00 0.00 0.00 63 1004.4
20260506111556 11 289 1.6 8.0 0.00 0.00 0.00 66 1004.4
20260506110054 11 262 1.6 8.0 0.00 0.00 0.00 64 1004.7
20260506104556 11 248 3.2 12.9 0.00 0.00 0.00 64 1004.9
20260506103052 10 303 1.6 6.4 0.00 0.00 0.00 72 1005.2
20260506101546 8 340 3.2 14.5 0.00 0.00 0.00 67 1005.4
20260506100053 7 71 4.8 19.3 0.00 0.00 0.00 74 1005.4
20260506094539 8 15 1.6 14.5 0.00 0.00 0.00 71 1005.6
20260506093035 7 360 1.6 9.7 0.00 0.00 0.00 73 1005.5
20260506091534 7 231 0.0 9.7 0.00 0.00 0.00 77 1005.7
20260506090030 7 338 3.2 24.1 0.00 0.00 0.00 74 1005.6
20260506084526 6 82 4.8 14.5 0.00 0.00 0.00 75 1005.8
20260506083024 6 154 4.8 16.1 0.00 0.00 0.00 76 1005.8
20260506081622 6 49 6.4 19.3 0.00 0.00 0.00 78 1005.7
20260506073019 5 161 4.8 11.3 0.00 0.00 0.00 81 1005.9
20260506071518 5 212 1.6 9.7 0.00 0.00 0.00 81 1005.8
20260506061513 5 98 6.4 20.9 0.00 0.00 0.00 83 1006.2
20260506044559 4 155 4.8 19.3 0.00 0.00 0.00 83 1006.4
20260506043056 4 138 8.0 17.7 0.00 0.00 0.00 84 1006.5
20260506041602 3 360 0.0 6.4 0.00 0.00 0.00 83 1006.5
20260506040105 3 355 0.0 4.8 0.00 0.00 0.00 83 1006.7
20260506034553 3 313 1.6 6.4 0.00 0.00 0.00 83 1006.7
20260506033051 4 278 1.6 16.1 0.00 0.00 0.00 83 1006.8
20260506031550 4 125 4.8 14.5 0.00 0.00 0.00 83 1006.8
20260506030059 3 290 4.8 9.7 0.00 0.00 0.00 83 1007.1
20260506024554 3 186 1.6 4.8 0.00 0.00 0.00 82 1007.2
20260506023044 4 181 4.8 14.5 0.00 0.00 0.00 82 1007.5